When you browse on this site, cookies collect data to enhance your experience and personalize the content and advertising you see.
Visit our Privacy Policy to learn more. By continuing to use the site, you agree to this use of cookies and data.
  • In Lithuania
  • List of Countries
  • For 7 days
  • Water Temperature
  • Satellite Maps
  • Weather Map
  • Weather Widgets
  • user-avatar
    Login

    Hourly Weather Ogarevo

    Today, 26 March, Tuesday

    Time Temperature Precipitation Wind Pressure Humidity
    00:00 -4°C° 0 mm 3 mps 734 mmHg 83%
    01:00 -4°C° 0 mm 3 mps 734 mmHg 84%
    02:00 -4°C° 0 mm 3 mps 733 mmHg 85%
    03:00 -2°C° 0 mm 3 mps 733 mmHg 85%
    04:00 -2°C° 0.1 mm 3 mps 733 mmHg 86%
    05:00 -1°C° 0.1 mm 3 mps 732 mmHg 87%
    06:00 -1°C° 0.1 mm 2 mps 732 mmHg 88%
    07:00 -1°C° 0 mm 2 mps 732 mmHg 89%
    08:00 -1°C° 0 mm 2 mps 732 mmHg 91%
    09:00 -1°C° 0 mm 2 mps 732 mmHg 92%
    10:00 +1°C° 0 mm 2 mps 732 mmHg 95%
    11:00 +1°C° 0 mm 2 mps 731 mmHg 97%
    12:00 0°C° 0 mm 3 mps 731 mmHg 99%
    13:00 0°C° 0 mm 3 mps 732 mmHg 99%
    14:00 0°C° 0 mm 3 mps 732 mmHg 99%
    15:00 -1°C° 0 mm 4 mps 732 mmHg 99%
    16:00 -1°C° 0 mm 4 mps 732 mmHg 99%
    17:00 -2°C° 0 mm 4 mps 732 mmHg 99%
    18:00 -2°C° 0 mm 4 mps 733 mmHg 98%
    19:00 -3°C° 0 mm 4 mps 733 mmHg 97%
    20:00 -2°C° 0 mm 3 mps 733 mmHg 96%
    21:00 -4°C° 0 mm 3 mps 734 mmHg 95%
    22:00 -4°C° 0 mm 3 mps 734 mmHg 93%
    23:00 -5°C° 0 mm 3 mps 734 mmHg 91%

    Tomorrow, 27 March, Wednesday

    Time Temperature Precipitation Wind Pressure Humidity
    00:00 -5°C° 0 mm 3 mps 735 mmHg 90%
    01:00 -5°C° 0 mm 2 mps 735 mmHg 89%
    02:00 -6°C° 0 mm 2 mps 735 mmHg 89%
    03:00 -6°C° 0 mm 2 mps 736 mmHg 89%
    04:00 -7°C° 0 mm 2 mps 736 mmHg 88%
    05:00 -7°C° 0 mm 2 mps 736 mmHg 88%
    06:00 -8°C° 0 mm 2 mps 736 mmHg 87%
    07:00 -7°C° 0 mm 2 mps 737 mmHg 87%
    08:00 -6°C° 0 mm 2 mps 737 mmHg 87%
    09:00 -3°C° 0 mm 1 mps 738 mmHg 87%
    10:00 -2°C° 0 mm 1 mps 738 mmHg 89%
    11:00 -1°C° 0 mm 1 mps 738 mmHg 90%
    12:00 0°C° 0 mm 1 mps 739 mmHg 92%
    13:00 +1°C° 0 mm 1 mps 739 mmHg 94%
    14:00 +1°C° 0 mm 1 mps 739 mmHg 97%
    15:00 +1°C° 0 mm 1 mps 739 mmHg 99%
    16:00 -1°C° 0 mm 2 mps 740 mmHg 96%
    17:00 -2°C° 0 mm 2 mps 740 mmHg 93%
    18:00 -3°C° 0 mm 2 mps 740 mmHg 90%
    19:00 -3°C° 0 mm 2 mps 740 mmHg 89%
    20:00 -4°C° 0 mm 2 mps 741 mmHg 88%
    21:00 -5°C° 0 mm 2 mps 741 mmHg 87%
    22:00 -6°C° 0 mm 3 mps 742 mmHg 88%
    23:00 -7°C° 0 mm 3 mps 742 mmHg 89%

    Day after tomorrow, 28 March, Thursday

    Time Temperature Precipitation Wind Pressure Humidity
    00:00 -7°C° 0 mm 3 mps 742 mmHg 90%
    01:00 -8°C° 0 mm 3 mps 742 mmHg 91%
    02:00 -8°C° 0 mm 3 mps 742 mmHg 92%
    03:00 -8°C° 0 mm 3 mps 742 mmHg 93%
    04:00 -9°C° 0 mm 3 mps 743 mmHg 94%
    05:00 -9°C° 0 mm 3 mps 743 mmHg 94%
    06:00 -9°C° 0 mm 3 mps 743 mmHg 94%
    07:00 -9°C° 0 mm 4 mps 744 mmHg 93%
    08:00 -8°C° 0 mm 4 mps 744 mmHg 92%
    09:00 -7°C° 0 mm 5 mps 745 mmHg 91%
    10:00 -6°C° 0 mm 5 mps 745 mmHg 89%
    11:00 -5°C° 0 mm 5 mps 745 mmHg 87%
    12:00 -4°C° 0 mm 5 mps 745 mmHg 85%
    13:00 -4°C° 0 mm 5 mps 745 mmHg 83%
    14:00 -4°C° 0 mm 5 mps 745 mmHg 81%
    15:00 -2°C° 0 mm 5 mps 745 mmHg 79%
    16:00 -3°C° 0 mm 4 mps 745 mmHg 80%
    17:00 -2°C° 0 mm 3 mps 745 mmHg 80%
    18:00 -4°C° 0 mm 3 mps 745 mmHg 81%
    19:00 -5°C° 0 mm 3 mps 745 mmHg 80%
    20:00 -5°C° 0 mm 2 mps 745 mmHg 80%
    21:00 -5°C° 0 mm 2 mps 745 mmHg 80%
    22:00 -6°C° 0 mm 3 mps 745 mmHg 80%
    23:00 -6°C° 0 mm 3 mps 744 mmHg 81%

    29 March, Friday

    Time Temperature Precipitation Wind Pressure Humidity
    00:00 -5°C° 0 mm 3 mps 744 mmHg 81%
    01:00 -5°C° 0 mm 3 mps 744 mmHg 84%
    02:00 -5°C° 0 mm 3 mps 743 mmHg 87%
    03:00 -5°C° 0 mm 4 mps 743 mmHg 90%
    04:00 -4°C° 0 mm 4 mps 743 mmHg 92%
    05:00 -4°C° 0 mm 4 mps 742 mmHg 93%
    06:00 -3°C° 0 mm 4 mps 742 mmHg 94%
    07:00 -4°C° 0.2 mm 5 mps 741 mmHg 94%
    08:00 -2°C° 0.2 mm 5 mps 741 mmHg 94%
    09:00 -2°C° 0.2 mm 6 mps 741 mmHg 95%
    10:00 -1°C° 0.1 mm 5 mps 741 mmHg 96%
    11:00 -1°C° 0.1 mm 5 mps 741 mmHg 98%
    12:00 -1°C° 0.1 mm 4 mps 741 mmHg 99%
    13:00 0°C° 0 mm 4 mps 741 mmHg 99%
    14:00 0°C° 0 mm 4 mps 741 mmHg 99%
    15:00 0°C° 0 mm 4 mps 740 mmHg 99%
    16:00 0°C° 0 mm 4 mps 740 mmHg 99%
    17:00 0°C° 0 mm 4 mps 740 mmHg 99%
    18:00 0°C° 0 mm 4 mps 740 mmHg 98%
    19:00 0°C° 0 mm 4 mps 740 mmHg 96%
    20:00 0°C° 0 mm 4 mps 740 mmHg 94%
    21:00 0°C° 0 mm 4 mps 740 mmHg 92%
    22:00 0°C° 0 mm 4 mps 740 mmHg 91%
    23:00 0°C° 0 mm 4 mps 740 mmHg 91%

    30 March, Saturday

    Time Temperature Precipitation Wind Pressure Humidity
    00:00 0°C° 0 mm 4 mps 740 mmHg 91%
    01:00 0°C° 0 mm 4 mps 740 mmHg 91%
    02:00 0°C° 0 mm 4 mps 740 mmHg 92%
    03:00 0°C° 0 mm 4 mps 740 mmHg 93%
    04:00 -1°C° 0 mm 4 mps 740 mmHg 93%
    05:00 -1°C° 0 mm 4 mps 740 mmHg 94%
    06:00 -1°C° 0 mm 4 mps 739 mmHg 94%
    07:00 -1°C° 0 mm 4 mps 739 mmHg 96%
    08:00 -1°C° 0 mm 4 mps 739 mmHg 98%
    09:00 0°C° 0 mm 4 mps 739 mmHg 99%
    10:00 0°C° 0 mm 5 mps 739 mmHg 99%
    11:00 0°C° 0 mm 5 mps 739 mmHg 99%
    12:00 +1°C° 0 mm 5 mps 739 mmHg 99%
    13:00 +1°C° 0 mm 5 mps 739 mmHg 99%
    14:00 +1°C° 0 mm 5 mps 739 mmHg 98%
    15:00 +2°C° 0 mm 5 mps 739 mmHg 98%
    16:00 +3°C° 0 mm 4 mps 738 mmHg 97%
    17:00 +3°C° 0 mm 4 mps 738 mmHg 96%
    18:00 +3°C° 0 mm 4 mps 738 mmHg 94%
    19:00 +3°C° 0 mm 4 mps 739 mmHg 91%
    20:00 +3°C° 0 mm 4 mps 739 mmHg 87%
    21:00 +3°C° 0 mm 4 mps 739 mmHg 83%
    22:00 +1°C° 0 mm 4 mps 739 mmHg 84%
    23:00 +1°C° 0 mm 4 mps 739 mmHg 85%

    31 March, Sunday

    Time Temperature Precipitation Wind Pressure Humidity
    00:00 +2°C° 0 mm 3 mps 739 mmHg 86%
    01:00 +1°C° 0 mm 3 mps 739 mmHg 86%
    02:00 +1°C° 0 mm 3 mps 739 mmHg 87%
    03:00 +1°C° 0 mm 3 mps 739 mmHg 87%
    04:00 +1°C° 0 mm 3 mps 739 mmHg 88%
    05:00 +1°C° 0 mm 3 mps 739 mmHg 88%
    06:00 0°C° 0 mm 3 mps 739 mmHg 88%
    07:00 +1°C° 0 mm 3 mps 739 mmHg 90%
    08:00 +1°C° 0 mm 3 mps 739 mmHg 92%
    09:00 +2°C° 0 mm 3 mps 739 mmHg 94%
    10:00 +3°C° 0 mm 4 mps 739 mmHg 92%
    11:00 +4°C° 0 mm 4 mps 739 mmHg 90%
    12:00 +5°C° 0 mm 4 mps 739 mmHg 88%
    13:00 +6°C° 0 mm 4 mps 738 mmHg 86%
    14:00 +8°C° 0 mm 3 mps 738 mmHg 83%
    15:00 +9°C° 0 mm 3 mps 738 mmHg 80%
    16:00 +8°C° 0 mm 3 mps 738 mmHg 79%
    17:00 +7°C° 0 mm 3 mps 738 mmHg 78%
    18:00 +7°C° 0 mm 3 mps 738 mmHg 78%
    19:00 +5°C° 0 mm 3 mps 738 mmHg 79%
    20:00 +5°C° 0 mm 2 mps 738 mmHg 80%
    21:00 +5°C° 0 mm 2 mps 739 mmHg 81%
    22:00 +4°C° 0 mm 2 mps 738 mmHg 81%
    23:00 +4°C° 0 mm 2 mps 738 mmHg 81%
    Show more